• In Uzbekistan
  • List of Countries
  • For 7 days
  • Water Temperature
  • Satellite Maps
  • Weather Map
  • Weather Widgets
  • user-avatar
    Login

    Hourly Weather Sultanaevo

    Today, 28 May, Monday

    Time Temperature Precipitation Wind Pressure Humidity
    00:00 +12°C° 0.1 mm 7 mps 749 mmHg 77%
    01:00 +12°C° 0.1 mm 7 mps 748 mmHg 77%
    02:00 +11°C° 1 mm 7 mps 747 mmHg 80%
    03:00 +11°C° 1 mm 7 mps 747 mmHg 84%
    04:00 +10°C° 1 mm 7 mps 746 mmHg 88%
    05:00 +9°C° 1.5 mm 7 mps 746 mmHg 89%
    06:00 +8°C° 1.5 mm 6 mps 746 mmHg 90%
    07:00 +8°C° 1.5 mm 6 mps 746 mmHg 91%
    08:00 +9°C° 0.1 mm 5 mps 747 mmHg 84%
    09:00 +10°C° 0.1 mm 5 mps 747 mmHg 78%
    10:00 +12°C° 0.1 mm 5 mps 748 mmHg 71%
    11:00 +10°C° 0.6 mm 6 mps 748 mmHg 73%
    12:00 +10°C° 0.6 mm 7 mps 749 mmHg 76%
    13:00 +9°C° 0.6 mm 8 mps 749 mmHg 78%
    14:00 +9°C° 0.2 mm 8 mps 750 mmHg 75%
    15:00 +9°C° 0.2 mm 8 mps 750 mmHg 72%
    16:00 +9°C° 0.2 mm 8 mps 750 mmHg 69%
    17:00 +9°C° 0.1 mm 7 mps 751 mmHg 69%
    18:00 +8°C° 0.1 mm 6 mps 751 mmHg 69%
    19:00 +8°C° 0.1 mm 5 mps 752 mmHg 70%
    20:00 +7°C° 0 mm 5 mps 752 mmHg 70%
    21:00 +6°C° 0 mm 5 mps 753 mmHg 70%
    22:00 +5°C° 0 mm 4 mps 753 mmHg 71%
    23:00 +4°C° 0 mm 4 mps 754 mmHg 72%

    Tomorrow, 29 May, Tuesday

    Time Temperature Precipitation Wind Pressure Humidity
    00:00 +4°C° 0 mm 4 mps 754 mmHg 74%
    01:00 +3°C° 0 mm 4 mps 754 mmHg 76%
    02:00 +3°C° 0 mm 4 mps 754 mmHg 77%
    03:00 +1°C° 0 mm 4 mps 754 mmHg 79%
    04:00 +1°C° 0 mm 4 mps 755 mmHg 81%
    05:00 +3°C° 0 mm 4 mps 755 mmHg 78%
    06:00 +4°C° 0 mm 4 mps 755 mmHg 74%
    07:00 +5°C° 0 mm 5 mps 755 mmHg 71%
    08:00 +6°C° 0 mm 5 mps 754 mmHg 65%
    09:00 +8°C° 0 mm 5 mps 754 mmHg 60%
    10:00 +9°C° 0 mm 5 mps 754 mmHg 55%
    11:00 +9°C° 0.1 mm 5 mps 753 mmHg 56%
    12:00 +9°C° 0.1 mm 6 mps 753 mmHg 57%
    13:00 +9°C° 0.1 mm 6 mps 752 mmHg 59%
    14:00 +9°C° 0.1 mm 6 mps 752 mmHg 62%
    15:00 +9°C° 0.1 mm 5 mps 752 mmHg 65%
    16:00 +9°C° 0.1 mm 5 mps 751 mmHg 68%
    17:00 +8°C° 0 mm 4 mps 751 mmHg 71%
    18:00 +9°C° 0 mm 3 mps 751 mmHg 74%
    19:00 +9°C° 0 mm 3 mps 750 mmHg 77%
    20:00 +9°C° 0.1 mm 2 mps 750 mmHg 82%
    21:00 +8°C° 0.1 mm 2 mps 750 mmHg 86%
    22:00 +7°C° 0.1 mm 2 mps 750 mmHg 91%
    23:00 +7°C° 0 mm 2 mps 750 mmHg 92%

    Day after tomorrow, 30 May, Wednesday

    Time Temperature Precipitation Wind Pressure Humidity
    00:00 +6°C° 0 mm 2 mps 750 mmHg 94%
    01:00 +6°C° 0 mm 2 mps 749 mmHg 95%
    02:00 +5°C° 0 mm 2 mps 749 mmHg 95%
    03:00 +6°C° 0 mm 1 mps 749 mmHg 95%
    04:00 +6°C° 0 mm 1 mps 749 mmHg 95%
    05:00 +7°C° 0 mm 2 mps 749 mmHg 92%
    06:00 +8°C° 0 mm 2 mps 749 mmHg 89%
    07:00 +9°C° 0 mm 3 mps 749 mmHg 86%
    08:00 +10°C° 0.1 mm 3 mps 748 mmHg 84%
    09:00 +11°C° 0.1 mm 4 mps 748 mmHg 83%
    10:00 +12°C° 0.1 mm 5 mps 747 mmHg 81%
    11:00 +13°C° 0.4 mm 5 mps 747 mmHg 81%
    12:00 +14°C° 0.4 mm 6 mps 746 mmHg 81%
    13:00 +15°C° 0.4 mm 6 mps 745 mmHg 81%
    14:00 +16°C° 0.3 mm 7 mps 744 mmHg 76%
    15:00 +18°C° 0.3 mm 7 mps 744 mmHg 70%
    16:00 +21°C° 0.3 mm 8 mps 743 mmHg 64%
    17:00 +20°C° 0.1 mm 7 mps 742 mmHg 68%
    18:00 +18°C° 0.1 mm 7 mps 742 mmHg 72%
    19:00 +17°C° 0.1 mm 6 mps 741 mmHg 75%
    20:00 +16°C° 0.2 mm 7 mps 741 mmHg 78%
    21:00 +16°C° 0.2 mm 7 mps 740 mmHg 80%
    22:00 +15°C° 0.2 mm 7 mps 740 mmHg 82%
    23:00 +15°C° 0.6 mm 7 mps 739 mmHg 84%

    31 May, Thursday

    Time Temperature Precipitation Wind Pressure Humidity
    00:00 +15°C° 0.6 mm 7 mps 739 mmHg 87%
    01:00 +14°C° 0.6 mm 7 mps 739 mmHg 89%
    02:00 +12°C° 0.4 mm 7 mps 739 mmHg 89%
    03:00 +13°C° 0.4 mm 6 mps 739 mmHg 89%
    04:00 +11°C° 0.4 mm 6 mps 740 mmHg 89%
    05:00 +11°C° 0 mm 6 mps 740 mmHg 87%
    06:00 +11°C° 0 mm 7 mps 740 mmHg 84%
    07:00 +11°C° 0 mm 7 mps 741 mmHg 81%
    08:00 +12°C° 0 mm 7 mps 741 mmHg 75%
    09:00 +13°C° 0 mm 8 mps 742 mmHg 69%
    10:00 +15°C° 0 mm 8 mps 742 mmHg 64%
    11:00 +15°C° 0.1 mm 8 mps 743 mmHg 63%
    12:00 +15°C° 0.1 mm 8 mps 743 mmHg 62%
    13:00 +15°C° 0.1 mm 8 mps 743 mmHg 62%
    14:00 +14°C° 0 mm 7 mps 744 mmHg 63%
    15:00 +14°C° 0 mm 7 mps 744 mmHg 64%
    16:00 +13°C° 0 mm 6 mps 744 mmHg 65%
    17:00 +12°C° 0 mm 5 mps 745 mmHg 69%
    18:00 +11°C° 0 mm 4 mps 745 mmHg 73%
    19:00 +10°C° 0 mm 3 mps 745 mmHg 77%
    20:00 +9°C° 0.1 mm 3 mps 746 mmHg 78%
    21:00 +8°C° 0.1 mm 3 mps 747 mmHg 80%
    22:00 +8°C° 0.1 mm 2 mps 747 mmHg 81%
    23:00 +7°C° 0 mm 2 mps 748 mmHg 82%

    1 June, Friday

    Time Temperature Precipitation Wind Pressure Humidity
    00:00 +5°C° 0 mm 3 mps 748 mmHg 83%
    01:00 +4°C° 0 mm 3 mps 749 mmHg 84%
    02:00 +3°C° 0 mm 3 mps 749 mmHg 85%
    03:00 +3°C° 0 mm 3 mps 750 mmHg 86%
    04:00 +3°C° 0 mm 2 mps 750 mmHg 87%
    05:00 +3°C° 0 mm 3 mps 751 mmHg 83%
    06:00 +5°C° 0 mm 3 mps 751 mmHg 79%
    07:00 +7°C° 0 mm 3 mps 751 mmHg 75%
    08:00 +8°C° 0 mm 3 mps 752 mmHg 70%
    09:00 +9°C° 0 mm 3 mps 752 mmHg 65%
    10:00 +11°C° 0 mm 3 mps 752 mmHg 60%
    11:00 +12°C° 0 mm 2 mps 752 mmHg 58%
    12:00 +13°C° 0 mm 2 mps 752 mmHg 56%
    13:00 +13°C° 0 mm 2 mps 752 mmHg 54%
    14:00 +14°C° 0 mm 2 mps 752 mmHg 54%
    15:00 +14°C° 0 mm 2 mps 752 mmHg 53%
    16:00 +14°C° 0 mm 2 mps 752 mmHg 53%
    17:00 +14°C° 0 mm 2 mps 753 mmHg 58%
    18:00 +13°C° 0 mm 2 mps 753 mmHg 63%
    19:00 +13°C° 0 mm 2 mps 753 mmHg 69%
    20:00 +10°C° 0 mm 2 mps 753 mmHg 72%
    21:00 +9°C° 0 mm 2 mps 753 mmHg 75%
    22:00 +8°C° 0 mm 2 mps 754 mmHg 78%
    23:00 +7°C° 0 mm 2 mps 754 mmHg 79%

    2 June, Saturday

    Time Temperature Precipitation Wind Pressure Humidity
    00:00 +7°C° 0 mm 2 mps 754 mmHg 79%
    01:00 +6°C° 0 mm 2 mps 754 mmHg 80%
    02:00 +5°C° 0 mm 2 mps 754 mmHg 81%
    03:00 +5°C° 0 mm 2 mps 754 mmHg 82%
    04:00 +4°C° 0 mm 2 mps 754 mmHg 83%
    05:00 +6°C° 0 mm 2 mps 754 mmHg 79%
    06:00 +7°C° 0 mm 3 mps 755 mmHg 74%
    07:00 +8°C° 0 mm 3 mps 755 mmHg 70%
    08:00 +10°C° 0 mm 3 mps 755 mmHg 64%
    09:00 +11°C° 0 mm 4 mps 755 mmHg 57%
    10:00 +12°C° 0 mm 4 mps 755 mmHg 51%
    11:00 +13°C° 0 mm 5 mps 755 mmHg 51%
    12:00 +13°C° 0 mm 5 mps 755 mmHg 50%
    13:00 +13°C° 0 mm 5 mps 755 mmHg 50%
    14:00 +13°C° 0 mm 5 mps 755 mmHg 51%
    15:00 +13°C° 0 mm 5 mps 755 mmHg 52%
    16:00 +13°C° 0 mm 5 mps 755 mmHg 53%
    17:00 +13°C° 0 mm 4 mps 755 mmHg 58%
    18:00 +12°C° 0 mm 4 mps 755 mmHg 63%
    19:00 +11°C° 0 mm 3 mps 755 mmHg 67%
    20:00 +10°C° 0 mm 3 mps 755 mmHg 70%
    21:00 +8°C° 0 mm 2 mps 756 mmHg 73%
    22:00 +6°C° 0 mm 2 mps 756 mmHg 76%
    23:00 +6°C° 0 mm 2 mps 756 mmHg 77%
    Show more